#timestamp,LO_Frequency,Hit,StdDev 
1515067215.2,286046998.4,N
1515067235.0,286046996.5,N
1515067235.9,286046996.5,N
1515067255.8,286046996.8,N
1515067275.6,286046997.5,N
1515067295.4,286046997.5,N
1515067315.3,286046997.7,N
1515067335.1,286046995.6,Y
1515067355.9,286046995.4,P
1515067375.7,286046995.6,P
1515067395.5,286046996.1,P
1515067415.4,286046996.0,Y
1515067435.2,286046998.6,P
1515067455.0,286046998.2,N
1515067455.9,286046998.2,N
1515067475.8,286046998.9,N
1515067495.6,286046999.0,N
1515067515.5,286047002.8,Y
1515067535.3,286047004.3,P
1515067555.1,286046999.8,N
1515067575.9,286047000.3,N
1515067595.7,286046999.9,N
1515067615.9,286047000.2,N
1515067635.7,286047004.1,N
1515067655.6,286047004.3,N
1515067675.4,286047002.0,N
1515067695.2,286047002.0,N
1515067715.1,286047001.0,N
1515067716.0,286047001.0,N
1515067735.8,286047000.9,N
1515067755.7,286047001.0,N
1515067775.5,286046998.9,N
1515067795.3,286047000.8,N
1515067815.2,286047000.5,N
1515067835.0,286047000.4,N
1515067835.9,286047000.4,N
1515067855.8,286047000.0,N
1515067875.6,286047000.5,N
1515067895.4,286047001.2,N
1515067915.3,286046999.9,N
1515067935.1,286047000.7,N
1515067955.8,286047001.0,N
1515067975.7,286046998.7,N
1515067995.5,286046999.5,N
1515068015.4,286046999.1,N
1515068035.2,286046999.3,N
1515068055.0,286046998.7,N
1515068055.9,286046998.7,N
1515068075.8,286046999.2,N
1515068095.6,286046999.2,N
1515068115.4,286046999.1,N
1515068135.3,286046999.3,N
1515068155.1,286046996.7,N
1515068175.9,286046997.2,N
1515068195.7,286046997.5,N
1515068215.5,286046997.4,N
1515068235.4,286046997.2,N
1515068255.2,286046998.0,N
1515068275.0,286046997.8,N
1515068275.9,286046997.8,N
1515068295.8,286046997.5,N
1515068315.6,286046997.7,N
1515068335.5,286046997.2,N
1515068355.3,286046997.2,N
1515068375.1,286046997.2,N
1515068395.9,286046997.9,N
1515068415.7,286046995.4,Y
1515068435.6,286046996.5,P
1515068455.4,286046999.2,N
1515068475.2,286046997.9,N
1515068495.1,286046998.0,N
1515068496.0,286046998.0,N
1515068515.8,286046995.1,Y
1515068535.6,286046999.1,P
1515068555.5,286046999.1,N
1515068575.3,286046998.9,N
1515068595.2,286047001.1,N
1515068615.9,286046998.8,N
1515068635.7,286046998.3,N
1515068655.6,286046998.5,N
1515068675.4,286046998.9,N
1515068695.2,286046997.3,Y
1515068715.1,286046999.1,P
1515068716.0,286046999.1,P
1515068735.8,286046998.2,P
1515068755.7,286046998.9,Y
1515068775.5,286046998.2,P
1515068795.3,286047000.4,N
1515068815.2,286046998.2,N
1515068835.0,286047000.1,N
1515068835.9,286047000.1,N
1515068855.8,286047002.6,N
1515068875.6,286047002.0,N
1515068895.4,286047002.2,N
1515068915.3,286047002.4,N
1515068935.1,286046999.8,N
1515068955.9,286047001.0,N
1515068975.7,286047000.6,N
1515068995.5,286047000.9,N
1515069015.4,286046998.5,N
1515069035.2,286047000.9,N
1515069055.1,286046999.8,N
1515069056.0,286046999.8,N
1515069075.8,286046998.2,N
1515069095.6,286046998.4,N
1515069115.5,286046998.3,N
1515069135.3,286046998.4,N
1515069155.2,286046998.7,N
1515069175.9,286046999.9,N
1515069195.7,286046998.5,N
1515069215.6,286047002.8,N
1515069235.4,286046999.4,N
1515069255.2,286046999.1,N
1515069275.1,286046999.4,N
1515069276.0,286046999.4,N
1515069295.8,286046998.5,N
1515069315.7,286047000.1,N
1515069335.5,286047000.2,N
1515069355.3,286047002.6,N
1515069375.2,286047001.4,N
1515069395.0,286047001.9,N
1515069395.9,286047001.9,N
1515069415.8,286047000.1,N
1515069435.6,286047000.1,N
1515069455.4,286047002.7,N
1515069475.3,286047004.2,Y
1515069495.1,286047001.3,P
1515069515.9,286047001.9,N
1515069535.7,286047000.4,N
1515069555.5,286047002.3,Y
1515069575.4,286047000.9,P
1515069595.2,286047002.3,P
1515069615.0,286046999.8,N
1515069615.9,286046999.8,N
1515069635.8,286047000.0,N
1515069655.6,286047000.9,N
1515069675.5,286047001.2,N
1515069695.3,286047000.6,N
1515069715.1,286047000.7,N
1515069735.9,286046999.7,N
1515069755.7,286047001.7,N
1515069775.6,286047003.4,Y
1515069795.4,286047003.6,P
1515069815.2,286047003.5,N
1515069835.1,286047003.0,N
1515069836.0,286047003.0,N
1515069855.8,286047003.7,Y
1515069875.7,286047002.6,P
1515069895.5,286047001.6,P
1515069915.3,286047001.5,N
1515069935.2,286047004.0,Y
1515069955.0,286047000.3,P
1515069955.9,286047000.3,N
1515069975.8,286047000.3,N
1515069995.6,286046998.2,N
1515070015.4,286047001.2,N
1515070035.3,286047001.1,N
1515070055.1,286046998.4,N
1515070075.9,286046998.1,N
1515070095.7,286047000.7,N
1515070115.5,286047000.1,N
1515070135.4,286047001.1,N
1515070155.2,286047001.1,N
1515070175.0,286046998.4,N
1515070175.9,286046998.4,N
1515070195.8,286047001.1,N
1515070215.6,286047000.3,N
1515070235.5,286047000.4,N
1515070255.3,286046998.8,N
1515070275.1,286046999.3,N
1515070295.9,286046996.5,N
1515070315.7,286046996.8,N
1515070335.6,286046998.3,N
1515070355.4,286046999.0,N
1515070375.2,286046999.4,N
1515070395.1,286046998.9,N
1515070396.0,286046998.9,N
1515070415.8,286046998.7,N
1515070435.7,286047000.7,N
1515070455.5,286046998.7,N
1515070475.3,286046998.8,N
1515070495.2,286046998.7,N
1515070515.0,286046998.1,N
1515070515.9,286046998.1,N
1515070535.8,286046999.3,N
1515070555.6,286047001.0,N
1515070575.4,286047000.4,N
1515070595.3,286047002.4,N
1515070615.1,286047002.3,N
1515070635.8,286047001.8,N
1515070655.7,286047004.2,N
1515070675.5,286047001.3,N
1515070695.4,286047001.9,N
1515070715.2,286047001.3,N
1515070735.0,286047001.7,N
1515070735.9,286047001.7,N
1515070755.8,286047001.7,N
1515070775.6,286047003.9,N
1515070795.5,286047004.4,N
